Alabaster, AL

3:41 AM CDT on October 23, 2019 (GMT -0500)
Shelby County

Weather History for KEET - August, 2019

Change the Weather History Date:

Sunday, August 11, 2019

  Actual Average Record
Temperature  
Mean Temperature 86 °F 81 °F  
Max Temperature 97 °F 91 °F 103 °F (2007)
Min Temperature 74 °F 71 °F 59 °F (1962)
Cooling Degree Days 21 16  
Month to date cooling degree days 193 176  
Year to date cooling degree days 1482 1306  
Since 1 June cooling degree days 1085 1037  
Growing Degree Days 34 (Base 50)    
Moisture  
Dew Point 73 °F    
Average Humidity 70    
Maximum Humidity 100    
Minimum Humidity 40    
Precipitation  
Precipitation 0.00 in 0.16 in 1.56 in (2013)
Month to date precipitation 0.50 1.61  
Year to date precipitation 31.78 34.93  
Sea Level Pressure  
Sea Level Pressure 29.96 in    
Wind  
Wind Speed 3 mph (NW)    
Max Wind Speed 10 mph    
Max Gust Speed 16 mph    
Visibility 6 miles    
Events Fog    
T = Trace of Precipitation, MM = Missing Value Source: NWS Daily Summary

Daily Weather History Graph

Daily Weather History Graph

Search for Another Location

Airport or City:

Astronomy

Aug. 11, 2019 Rise Set
Actual Time 6:07 AM CDT 7:37 PM CDT
Civil Twilight 5:40 AM CDT 8:03 PM CDT
Nautical Twilight 5:08 AM CDT 8:35 PM CDT
Astronomical Twilight 4:35 AM CDT 9:08 PM CDT
Moon 5:08 PM CDT (8/11) 2:33 AM CDT (8/11)
Length of Visible Light 14h 22m
Length of Day
13h 30m
Waxing Gibbous, 87% of the Moon is Illuminated
Aug 11
Waxing Gibbous
Aug 15
Full
Aug 23
Last Quarter
Aug 30
New
Sep 5
First Quarter

Hourly Weather History & Observations

Time (CDT) Temp. Heat Index Dew Point Humidity Pressure Visibility Wind Dir Wind Speed Gust Speed Precip Events Conditions
12:49 AM 75.2 °F - 73.4 °F 94% 29.96 in 9.0 mi Calm Calm - N/A   Partly Cloudy
12:53 AM 75.9 °F - 73.9 °F 94% 29.94 in 9.0 mi Calm Calm - N/A   Partly Cloudy
1:53 AM 75.0 °F - 73.0 °F 94% 29.94 in 7.0 mi Calm Calm - N/A   Partly Cloudy
2:08 AM 75.0 °F - 73.0 °F 94% 29.96 in 7.0 mi Calm Calm - N/A   Mostly Cloudy
2:18 AM 73.9 °F - 73.0 °F 97% 29.96 in 2.5 mi Calm Calm - N/A   Overcast
2:27 AM 73.9 °F - 73.0 °F 97% 29.96 in 1.2 mi Calm Calm - N/A   Overcast
2:53 AM 73.9 °F - 73.9 °F 100% 29.94 in 1.8 mi Calm Calm - N/A   Overcast
3:01 AM 75.0 °F - 73.9 °F 96% 29.96 in 2.5 mi Calm Calm - N/A   Overcast
3:17 AM 73.9 °F - 73.9 °F 100% 29.95 in 1.2 mi Calm Calm - N/A   Overcast
3:38 AM 75.0 °F - 73.9 °F 96% 29.95 in 0.8 mi Calm Calm - N/A   Mist
3:53 AM 75.0 °F - 73.9 °F 96% 29.94 in 0.8 mi Calm Calm - N/A   Mist
4:10 AM 75.0 °F - 73.9 °F 96% 29.96 in 1.2 mi WNW 4.6 mph - N/A   Overcast
4:53 AM 73.9 °F - 73.9 °F 100% 29.94 in 1.0 mi WNW 4.6 mph - N/A   Overcast
5:07 AM 75.0 °F - 73.9 °F 96% 29.97 in 0.8 mi NW 4.6 mph - N/A   Mist
5:53 AM 75.0 °F - 73.9 °F 96% 29.96 in 0.5 mi NW 5.8 mph - N/A Fog Fog
6:53 AM 75.0 °F - 75.0 °F 100% 29.97 in 1.0 mi NW 5.8 mph - N/A   Overcast
7:00 AM 75.0 °F - 75.0 °F 100% 30.00 in 0.8 mi NNW 3.5 mph - N/A   Overcast
7:09 AM 75.0 °F - 75.0 °F 100% 30.00 in 1.5 mi NW 3.5 mph - N/A   Overcast
7:37 AM 75.9 °F - 75.0 °F 97% 30.00 in 2.0 mi WNW 4.6 mph - N/A   Overcast
7:53 AM 75.9 °F - 75.0 °F 97% 29.99 in 2.5 mi NW 5.8 mph - N/A   Overcast
8:00 AM 75.9 °F - 75.0 °F 97% 30.01 in 3.0 mi NW 4.6 mph - N/A   Overcast
8:39 AM 78.1 °F - 75.0 °F 90% 30.02 in 4.0 mi WNW 4.6 mph - N/A   Overcast
8:53 AM 79.0 °F - 75.0 °F 88% 30.00 in 4.0 mi West 3.5 mph - N/A   Overcast
9:12 AM 81.0 °F 86.7 °F 75.0 °F 82% 30.02 in 6.0 mi WNW 3.5 mph - N/A   Haze
9:26 AM 80.1 °F 85.1 °F 75.0 °F 85% 30.02 in 7.0 mi West 4.6 mph - N/A   Scattered Clouds
9:53 AM 82.9 °F 90.2 °F 75.0 °F 77% 30.01 in 10.0 mi WNW 5.8 mph - N/A   Scattered Clouds
10:53 AM 87.1 °F 96.3 °F 75.0 °F 67% 30.00 in 10.0 mi Calm Calm - N/A   Clear
11:53 AM 88.0 °F 96.5 °F 73.9 °F 63% 29.99 in 10.0 mi NW 4.6 mph - N/A   Scattered Clouds
12:53 PM 91.0 °F 97.6 °F 71.1 °F 52% 29.96 in 10.0 mi North 6.9 mph - N/A   Mostly Cloudy
1:53 PM 93.9 °F 100.8 °F 71.1 °F 47% 29.95 in 10.0 mi Variable 5.8 mph - N/A   Mostly Cloudy
2:53 PM 93.9 °F 99.1 °F 69.1 °F 44% 29.93 in 10.0 mi North 6.9 mph - N/A   Mostly Cloudy
3:53 PM 96.1 °F 101.6 °F 69.1 °F 41% 29.92 in 10.0 mi Variable 5.8 mph - N/A   Partly Cloudy
4:53 PM 93.9 °F 98.6 °F 68.0 °F 43% 29.91 in 10.0 mi North 6.9 mph - N/A   Clear
5:53 PM 96.1 °F 101.0 °F 68.0 °F 40% 29.91 in 10.0 mi Variable 5.8 mph - N/A   Clear
6:53 PM 91.9 °F 95.9 °F 68.0 °F 45% 29.92 in 10.0 mi Variable 3.5 mph - N/A   Scattered Clouds
7:53 PM 82.9 °F 88.8 °F 73.0 °F 72% 29.94 in 10.0 mi Calm Calm - N/A   Partly Cloudy
8:53 PM 81.0 °F 85.8 °F 73.0 °F 77% 29.94 in 10.0 mi Calm Calm - N/A   Clear
9:53 PM 79.0 °F - 73.0 °F 82% 29.94 in 10.0 mi Calm Calm - N/A   Clear
10:53 PM 78.1 °F - 72.0 °F 81% 29.93 in 10.0 mi Calm Calm - N/A   Clear
11:53 PM 77.0 °F - 72.0 °F 84% 29.94 in 10.0 mi Calm Calm - N/A   Clear